TimeMDT,TemperatureF,Dew PointF,Humidity,Sea Level PressureIn,VisibilityMPH,Wind Direction,Wind SpeedMPH,Gust SpeedMPH,PrecipitationIn,Events,Conditions,WindDirDegrees,DateUTC
12:53 AM,62.1,15.1,16,29.90,10.0,NE,9.2,-,N/A,,Clear,50,2012-10-04 06:53:00
1:53 AM,57.0,23.0,27,29.93,10.0,Calm,Calm,-,N/A,,Clear,0,2012-10-04 07:53:00
2:53 AM,48.9,19.0,31,29.94,10.0,Calm,Calm,-,N/A,,Clear,0,2012-10-04 08:53:00
3:53 AM,48.9,19.0,31,29.93,10.0,SSE,3.5,-,N/A,,Clear,150,2012-10-04 09:53:00
4:53 AM,45.0,19.9,37,29.94,10.0,Calm,Calm,-,N/A,,Clear,0,2012-10-04 10:53:00
5:53 AM,45.0,21.9,40,29.95,10.0,ESE,4.6,-,N/A,,Clear,120,2012-10-04 11:53:00
6:53 AM,42.1,19.9,41,29.98,10.0,Calm,Calm,-,N/A,,Clear,0,2012-10-04 12:53:00
7:53 AM,42.1,19.9,41,29.99,10.0,Calm,Calm,-,N/A,,Clear,0,2012-10-04 13:53:00
8:53 AM,51.1,25.0,36,29.99,10.0,Calm,Calm,-,N/A,,Clear,0,2012-10-04 14:53:00
9:53 AM,59.0,25.0,27,29.98,10.0,SSE,5.8,-,N/A,,Clear,160,2012-10-04 15:53:00
10:53 AM,61.0,24.1,24,29.98,10.0,South,5.8,-,N/A,,Clear,190,2012-10-04 16:53:00
11:53 AM,64.9,24.1,21,29.95,10.0,Calm,Calm,-,N/A,,Clear,0,2012-10-04 17:53:00
12:53 PM,69.1,24.1,18,29.91,10.0,Calm,Calm,-,N/A,,Clear,0,2012-10-04 18:53:00
1:53 PM,73.0,26.1,17,29.88,10.0,Variable,3.5,-,N/A,,Clear,0,2012-10-04 19:53:00
2:53 PM,75.9,25.0,15,29.86,10.0,West,8.1,-,N/A,,Scattered Clouds,270,2012-10-04 20:53:00
3:53 PM,79.0,19.9,11,29.84,10.0,West,25.3,32.2,N/A,,Partly Cloudy,270,2012-10-04 21:53:00
4:53 PM,79.0,21.0,12,29.83,10.0,West,20.7,27.6,N/A,,Scattered Clouds,260,2012-10-04 22:53:00
5:53 PM,78.1,24.1,14,29.82,10.0,WNW,10.4,21.9,N/A,,Scattered Clouds,290,2012-10-04 23:53:00
6:53 PM,73.0,25.0,17,29.83,10.0,WNW,8.1,-,N/A,,Mostly Cloudy,290,2012-10-05 00:53:00
7:53 PM,69.1,24.1,18,29.84,10.0,NNW,6.9,-,N/A,,Scattered Clouds,340,2012-10-05 01:53:00
8:53 PM,68.0,28.0,22,29.84,10.0,SW,8.1,-,0.00,,Mostly Cloudy,230,2012-10-05 02:53:00
9:53 PM,66.2,35.6,32,29.83,10.0,SE,5.8,-,N/A,,Clear,130,2012-10-05 03:53:00
10:53 PM,63.0,32.0,31,29.82,10.0,ENE,6.9,-,N/A,,Clear,60,2012-10-05 04:53:00
11:53 PM,63.0,33.1,33,29.79,10.0,ENE,6.9,-,0.00,,Mostly Cloudy,70,2012-10-05 05:53:00